Tracking 18032 objects as of 27-March-2017
HD Live streaming from Space Station
objects crossing your sky now

INS-1A

Track INS-1A now!
10-day predictions


NORAD ID: 41949
Int'l Code: 2017-008B
Perigee: 501.1 km
Apogee: 517.4 km
Inclination: 97.5 °
Period: 94.7 minutes
Semi major axis: 6880 km
RCS: Unknown
Launch date: February 15, 2017
Source: India (IND)
Launch site: SIRHARIKOTA (SRI)
Your satellite tracking list
Your tracking list is empty





NASA's NSSDC Master Catalog

Two Line Element Set (TLE):
1 41949U 17008B   17084.75228607 +.00002232 +00000-0 +10292-3 0  9996
2 41949 097.5028 146.2625 0011850 118.6811 241.5682 15.21249460005846
Source of the keplerian elements: AFSPC